[[{"header":{"parameterUnit":"m.s-1","parameterCategory":1,"la1":30.2991,"la2":30.254,"lo1":-89.0895,"lo2":-89.0444,"dy":0.0017,"dx":0.0017,"nx":28,"ny":28,"refTime":"2024-11-22T09:00:00:Z","depth":0,"parameterNumber":2,"parameterNumberName":"U-component_of_WINDS"},"data":[0,0,0,0,0,0,0,0,0,0,0,0,0,0,0,0,0,0,0,0,0,0,0,0,0,0,0,0,0,0,0,0,0,0,0,0,0,0,0,0,0,0,0,0,0,0,0,0,0,0,0,0,0,0,0,0,0,0,0.1961,0.1962,0,0.2042,0.2043,0.2044,0.2094,0.2094,0.2095,0.2095,0.2178,0.218,0.2182,0,0,0,0,0,0,0,0,0,0,0,0,0,0.1849,0.185,0.1961,0.1962,0.1963,0.2042,0.2043,0.2044,0.2094,0.2094,0.2095,0.2095,0.2177,0.2179,0.2182,0,0,0,0,0,0,0,0,0,0,0,0,0,0.191,0.1851,0.1961,0.1998,0.2002,0.2042,0.2043,0.2045,0.2094,0.2094,0.2095,0.2095,0.2176,0.2179,0.2182,0.2193,0,0,0.2191,0.2192,0,0,0,0,0,0,0,0,0.1907,0.1914,0.1991,0.1995,0.2,0.2059,0.2034,0.2094,0.2094,0.2059,0.2095,0.2095,0.2138,0.2144,0.2158,0.2197,0.22,0.2191,0.2193,0.2194,0.2195,0,0,0,0,0,0,0,0.1902,0.1911,0.1993,0.1992,0.1997,0.201,0.2019,0.2046,0.2095,0.2062,0.2066,0.2075,0.214,0.2155,0.2161,0.2201,0.2191,0.2194,0.2196,0.2197,0.2251,0.2251,0,0,0,0,0,0,0.1892,0.1907,0.1991,0.1996,0.1953,0.2011,0.2022,0.2039,0.2095,0.2104,0.2074,0.2077,0.215,0.2157,0.2164,0.2179,0.2194,0.2197,0.2199,0.2252,0.2251,0.2251,0,0,0,0,0,0,0.189,0.1899,0.1988,0.1953,0.1965,0.2013,0.2032,0.2041,0.2056,0.2104,0.2113,0.2081,0.2151,0.216,0.2185,0.2183,0.2199,0.2201,0.2252,0.2251,0.2251,0.221,0,0,0,0,0,0,0.1886,0.1898,0.1903,0.1952,0.1966,0.2007,0.2032,0.2042,0.2061,0.2065,0.2113,0.2121,0.2152,0.218,0.2188,0.2187,0.2204,0.2252,0.2252,0.2251,0.2212,0.2208,0.2205,0,0,0,0,0,0.1882,0.1888,0.1903,0.1913,0.1973,0.2007,0.2015,0.205,0.206,0.2065,0.2096,0.212,0.2182,0.2182,0.2191,0.2191,0.2253,0.2252,0.2251,0.2213,0.2209,0.2205,0,0,0,0,0,0,0.1838,0.1896,0.1912,0.1935,0.1966,0.2016,0.2023,0.2045,0.2073,0.2076,0.2118,0.2129,0.215,0.2173,0.2173,0.2204,0.222,0.2221,0.2188,0.2184,0.2181,0.2174,0.2206,0,0,0,0,0,0.183,0.1853,0.1902,0.1917,0.1932,0.1974,0.1991,0.2015,0.2049,0.2062,0.2095,0.2127,0.2153,0.217,0.2197,0.2215,0.2226,0.222,0.2216,0.2213,0.2214,0.2224,0.2222,0.2248,0.2248,0.2248,0,0,0.1815,0.185,0.1862,0.1909,0.1936,0.1958,0.1985,0.2008,0.2025,0.2066,0.2091,0.2116,0.2155,0.2176,0.2187,0.2196,0.2209,0.2212,0.221,0.2212,0.2223,0.2221,0.2218,0.2248,0.2248,0.2248,0,0,0.18,0.1828,0.1844,0.187,0.191,0.1938,0.1942,0.1988,0.2006,0.2033,0.2064,0.2084,0.2129,0.2155,0.2174,0.2167,0.2189,0.2175,0.2157,0.2167,0.2165,0.2163,0.216,0.2158,0.2175,0.2175,0.2175,0,0.1776,0.1811,0.1849,0.1869,0.1889,0.1927,0.1942,0.1966,0.2012,0.2025,0.2034,0.2091,0.212,0.2147,0.2145,0.216,0.2165,0.2169,0.2162,0.2161,0.216,0.2157,0.2156,0.2173,0.2173,0.2173,0.2173,0,0.178,0.1804,0.1811,0.1855,0.1876,0.1894,0.1933,0.1949,0.1972,0.1998,0.2024,0.206,0.2094,0.2103,0.2125,0.2133,0.2138,0.2154,0.2171,0.2154,0.2153,0.2152,0.217,0.217,0.2171,0.2172,0,0,0.1739,0.1803,0.1805,0.1825,0.1872,0.1891,0.191,0.1944,0.1956,0.1987,0.2004,0.2041,0.2056,0.2077,0.2103,0.2111,0.2102,0.2127,0.2128,0.212,0.2113,0.21,0.2098,0.2117,0.2117,0.2117,0.2109,0,0.173,0.1767,0.18,0.1824,0.1846,0.1882,0.1899,0.1929,0.1954,0.1976,0.2004,0.203,0.2048,0.2061,0.2071,0.2101,0.2101,0.2102,0.2133,0.2134,0.2122,0.2097,0.2084,0.2075,0.2109,0.2109,0.2109,0,0.1725,0.1753,0.178,0.1823,0.1834,0.1848,0.1881,0.1902,0.1937,0.1955,0.1978,0.2004,0.2026,0.204,0.207,0.207,0.2084,0.2101,0.2101,0.2105,0.212,0.21,0.2073,0.2071,0.2108,0.2108,0.2108,0,0.1691,0.1737,0.1758,0.1774,0.1826,0.1835,0.1857,0.1892,0.191,0.1938,0.195,0.1981,0.1998,0.2021,0.2055,0.2062,0.2081,0.2098,0.2096,0.2095,0.2098,0.2098,0.2072,0.2108,0.2108,0.2108,0.2108,0,0.1677,0.1692,0.1744,0.1757,0.1774,0.1812,0.1828,0.1853,0.1883,0.1901,0.1934,0.1951,0.1994,0.2016,0.2043,0.2063,0.207,0.2085,0.2092,0.2082,0.208,0.2092,0.2093,0.2108,0.2108,0.2108,0.2108,0,0.1643,0.1678,0.1704,0.175,0.1762,0.1773,0.1812,0.1826,0.1853,0.1876,0.1883,0.1925,0.1952,0.1988,0.2027,0.2044,0.2061,0.2072,0.2049,0.2053,0.2048,0.2048,0.203,0.2029,0.2065,0.2065,0.2064,0,0.1632,0.1643,0.1691,0.1705,0.1726,0.1749,0.1767,0.1805,0.1823,0.1862,0.1871,0.19,0.1926,0.1967,0.2001,0.203,0.2042,0.2033,0.2046,0.2036,0.2041,0.204,0.2041,0.203,0.2029,0.2029,0.2029,0,0.1607,0.1624,0.1649,0.168,0.17,0.1726,0.1754,0.1764,0.1807,0.1825,0.1853,0.1873,0.1911,0.194,0.1973,0.1996,0.2019,0.2024,0.2025,0.2015,0.2001,0.2008,0.204,0.2024,0.2025,0.2025,0.2025,0.2025,0.1584,0.1596,0.1631,0.1657,0.1682,0.1707,0.1721,0.175,0.1774,0.1808,0.1829,0.1855,0.1889,0.1936,0.1957,0.1979,0.1988,0.1989,0.199,0.1989,0.1986,0.1997,0.1985,0.1985,0.1985,0.1985,0.1986,0,0.1561,0.1585,0.1609,0.1646,0.1667,0.1687,0.1718,0.1734,0.1757,0.1786,0.181,0.1842,0.1869,0.1905,0.1935,0.1945,0.1956,0.1951,0.1951,0.1955,0.1976,0.1972,0.1941,0.1941,0.1941,0.1941,0.1941,0.1941,0.1551,0.1572,0.1593,0.1626,0.165,0.1676,0.1692,0.1715,0.1738,0.1772,0.1795,0.1818,0.185,0.1882,0.1908,0.1918,0.1927,0.1918,0.1931,0.195,0.1954,0.1958,0.1954,0.192,0.192,0.1909,0.1909,0.1909]},{"header":{"parameterUnit":"m.s-1","parameterCategory":1,"la1":30.2991,"la2":30.254,"lo1":-89.0895,"lo2":-89.0444,"dy":0.0017,"dx":0.0017,"nx":28,"ny":28,"refTime":"2024-11-22T09:00:00:Z","depth":0,"parameterNumber":3,"parameterNumberName":"V-component_of_WINDS"},"data":[0,0,0,0,0,0,0,0,0,0,0,0,0,0,0,0,0,0,0,0,0,0,0,0,0,0,0,0,0,0,0,0,0,0,0,0,0,0,0,0,0,0,0,0,0,0,0,0,0,0,0,0,0,0,0,0,0,0,1.5091,1.5091,0,1.5089,1.5089,1.5089,1.5079,1.5078,1.5078,1.5078,1.5076,1.5076,1.5077,0,0,0,0,0,0,0,0,0,0,0,0,0,1.5086,1.5086,1.5091,1.5091,1.5091,1.5089,1.5089,1.5089,1.5079,1.5078,1.5078,1.5078,1.5076,1.5076,1.5077,0,0,0,0,0,0,0,0,0,0,0,0,0,1.5086,1.5086,1.5091,1.5085,1.5085,1.5089,1.5089,1.5089,1.5079,1.5078,1.5078,1.5078,1.5076,1.5076,1.5077,1.5086,0,0,1.5077,1.5078,0,0,0,0,0,0,0,0,1.5086,1.5086,1.5086,1.5086,1.5085,1.5084,1.5086,1.5088,1.5079,1.5081,1.5078,1.5077,1.5079,1.5079,1.508,1.5086,1.5086,1.5078,1.5078,1.5078,1.5078,0,0,0,0,0,0,0,1.5086,1.5086,1.509,1.5086,1.5086,1.5083,1.5083,1.5087,1.5082,1.5081,1.508,1.508,1.5079,1.5079,1.5079,1.5086,1.5078,1.5078,1.5078,1.5078,1.5099,1.51,0,0,0,0,0,0,1.5087,1.5086,1.509,1.509,1.5085,1.5084,1.5083,1.5085,1.5082,1.5081,1.508,1.508,1.5079,1.5079,1.5079,1.509,1.5078,1.5078,1.5078,1.5099,1.5099,1.51,0,0,0,0,0,0,1.5087,1.5087,1.509,1.5088,1.5088,1.5084,1.5086,1.5085,1.5085,1.5082,1.5081,1.5082,1.5079,1.5079,1.5084,1.509,1.5078,1.5078,1.5098,1.5099,1.5099,1.5111,0,0,0,0,0,0,1.5087,1.5087,1.5091,1.5088,1.5088,1.5095,1.5086,1.5085,1.5086,1.5085,1.5083,1.5082,1.5078,1.5084,1.5084,1.509,1.5079,1.5098,1.5099,1.5099,1.511,1.5112,1.5113,0,0,0,0,0,1.5087,1.5094,1.5091,1.5091,1.5093,1.5095,1.5096,1.5091,1.5086,1.509,1.5087,1.5082,1.5089,1.5084,1.5085,1.509,1.5097,1.5098,1.5099,1.5109,1.5111,1.5113,0,0,0,0,0,0,1.5097,1.5094,1.509,1.5097,1.5097,1.5094,1.5098,1.5094,1.5095,1.5094,1.5088,1.5088,1.5094,1.5093,1.5088,1.5099,1.5092,1.5093,1.51,1.5102,1.5103,1.5103,1.5079,0,0,0,0,0,1.5101,1.5103,1.51,1.5106,1.5106,1.5102,1.5103,1.51,1.5099,1.5099,1.5097,1.5097,1.5099,1.51,1.5102,1.511,1.5109,1.5114,1.5115,1.5117,1.5118,1.5122,1.5124,1.5103,1.5103,1.5103,0,0,1.5107,1.5105,1.5107,1.5108,1.5108,1.5111,1.5102,1.5105,1.5108,1.51,1.5104,1.5103,1.5102,1.5109,1.5112,1.5108,1.5123,1.5118,1.5119,1.5119,1.5123,1.5125,1.5127,1.5103,1.5103,1.5103,0,0,1.5121,1.512,1.5125,1.5124,1.5123,1.512,1.5122,1.512,1.5118,1.5123,1.5117,1.5119,1.5123,1.5123,1.5123,1.5136,1.5132,1.5137,1.5146,1.515,1.5151,1.5153,1.5158,1.5159,1.5138,1.5138,1.5138,0,1.5129,1.5133,1.5128,1.5132,1.5132,1.5125,1.513,1.513,1.513,1.513,1.5126,1.5131,1.513,1.5136,1.5139,1.514,1.5141,1.5137,1.5152,1.5153,1.5154,1.5159,1.516,1.5139,1.5139,1.5139,1.5139,0,1.5143,1.5146,1.515,1.515,1.5151,1.5156,1.5152,1.5153,1.515,1.5147,1.5152,1.5151,1.5152,1.5153,1.515,1.5159,1.5157,1.5153,1.5145,1.5157,1.5161,1.5163,1.514,1.514,1.5139,1.5139,0,0,1.5163,1.516,1.5162,1.5162,1.516,1.5162,1.5166,1.5168,1.5169,1.5169,1.5172,1.5176,1.5171,1.5172,1.5168,1.5172,1.5182,1.5167,1.5167,1.517,1.5192,1.5196,1.5198,1.5179,1.518,1.518,1.5193,0,1.5176,1.5183,1.5179,1.5186,1.5189,1.5182,1.5186,1.5185,1.5183,1.5185,1.5183,1.5185,1.5179,1.5179,1.5183,1.518,1.5187,1.518,1.5182,1.5183,1.5183,1.52,1.5204,1.5216,1.5194,1.5194,1.5195,0,1.5192,1.5193,1.52,1.5198,1.5199,1.5202,1.5203,1.5205,1.5204,1.5203,1.5203,1.5199,1.5203,1.5196,1.5201,1.5196,1.5197,1.5196,1.5197,1.5197,1.5189,1.52,1.5219,1.5221,1.5197,1.5197,1.5197,0,1.5206,1.5209,1.5214,1.5214,1.5211,1.5214,1.5213,1.5212,1.5213,1.5213,1.5214,1.5215,1.5215,1.5216,1.5213,1.5208,1.5219,1.5211,1.5217,1.5217,1.522,1.522,1.5239,1.522,1.522,1.522,1.522,0,1.522,1.5225,1.522,1.5223,1.5228,1.5223,1.5229,1.5227,1.5226,1.5229,1.5223,1.5226,1.5221,1.5223,1.522,1.5225,1.5225,1.5224,1.5223,1.5224,1.5224,1.5225,1.5224,1.5221,1.5221,1.5221,1.5221,0,1.5237,1.5233,1.5238,1.5235,1.5235,1.5239,1.5237,1.5239,1.5237,1.524,1.5241,1.5237,1.5239,1.5236,1.5237,1.5235,1.5242,1.524,1.5242,1.5242,1.5248,1.5247,1.5268,1.527,1.5251,1.5251,1.5251,0,1.5246,1.525,1.5248,1.5249,1.5248,1.5251,1.5251,1.5247,1.5248,1.5247,1.525,1.5252,1.5253,1.5257,1.5254,1.5256,1.5254,1.5261,1.5254,1.5255,1.5254,1.5253,1.5254,1.5262,1.5262,1.5263,1.5263,0,1.5264,1.5262,1.5263,1.5264,1.5265,1.5265,1.5266,1.5267,1.5262,1.5264,1.5266,1.5267,1.5268,1.527,1.5271,1.527,1.5266,1.5265,1.5266,1.5268,1.5269,1.5268,1.5246,1.5264,1.5264,1.5264,1.5264,1.5264,1.5277,1.528,1.5278,1.528,1.528,1.528,1.5282,1.528,1.5282,1.5283,1.528,1.5283,1.5282,1.5282,1.5282,1.5284,1.5281,1.5283,1.5284,1.5284,1.5285,1.5269,1.5284,1.5284,1.5284,1.5284,1.5284,0,1.5294,1.5292,1.5294,1.5294,1.5296,1.5291,1.5291,1.5293,1.5295,1.5295,1.5296,1.5298,1.53,1.5298,1.5299,1.5301,1.5299,1.5302,1.5301,1.5301,1.5288,1.5286,1.5303,1.5303,1.5303,1.5303,1.5303,1.5303,1.5303,1.5307,1.5305,1.531,1.5308,1.5311,1.5311,1.5311,1.5311,1.5314,1.5315,1.5314,1.5312,1.5314,1.5315,1.5314,1.5315,1.5318,1.5317,1.5304,1.5302,1.53,1.5299,1.5318,1.5318,1.533,1.533,1.533]}]]